Location: Bayshore Village Mobile Home Park
(26.6945°N, 81.8642°W)
Time: 00:28:48
(UTC+00:00)

Hubble Space Telescope - Pass Details

Date: 30 October 2021
Orbit: 534 x 538 km, 28.5° (Epoch: 07 December)

Event Time Altitude Azimuth Distance (km) Brightness Sun altitude
Rises 22:59:50 0° 247° (WSW) 2,660 6.8 -3.8°
Reaches altitude 10° 23:02:06 10° 244° (WSW) 1,771 5.1 -4.3°
Maximum altitude 23:06:09 62° 164° (SSE) 596 1.0 -5.2°
Drops below altitude 10° 23:10:12 10° 83° (E) 1,773 2.7 -6.1°
Enters shadow 23:10:43 - 82° (E) 1,972 3.0 -6.2°
